RH
25 25 24 25 25 25 25 25 25 26 28 28 28 29 29 29 30 29 27 25 24 23 23 24 23 22 21 24 38 58 81 99 102 97 95 92 88 87 84 80 83 86 79 72 73 68 59 57 61 65 67 67 69 73 71 65 62 58 53 48 45 46 48
28 28 28 27 27 28 28 28 29 31 33 34 34 34 33 33 34 33 31 29 28 27 29 29 26 24 24 26 29 31 44 76 100 101 99 98 94 90 88 84 85 88 83 75 75 72 61 58 64 66 70 76 73 73 76 72 67 63 59 55 51 48 49
31 31 32 32 31 32 33 34 35 37 39 39 39 38 38 38 38 37 36 35 33 32 33 35 32 28 24 27 33 31 31 57 91 103 100 99 99 96 91 89 88 88 86 79 75 74 65 60 68 68 69 80 82 78 80 78 73 69 67 66 63 57 51
36 37 37 37 37 37 38 40 41 42 43 43 43 42 41 41 41 41 40 39 38 38 38 40 38 33 31 33 36 35 33 44 70 95 103 100 100 100 96 92 91 88 87 84 79 75 68 63 69 71 71 82 89 87 85 82 77 73 72 73 73 66 57
42 44 45 44 45 46 46 47 48 48 48 48 48 47 45 44 43 42 42 41 40 40 42 45 44 39 39 45 46 42 40 39 47 72 97 103 99 101 100 95 92 89 88 88 83 77 72 68 72 77 80 86 91 92 92 89 81 76 75 77 78 74 64
48 50 51 50 51 52 51 52 52 53 52 52 51 50 49 48 47 46 46 45 44 45 47 50 51 48 46 51 54 51 50 49 44 51 78 100 102 99 101 100 95 92 89 89 85 79 76 75 77 83 87 90 94 95 95 93 85 78 79 82 83 79 72
52 52 53 54 54 54 54 54 54 54 53 52 52 52 51 50 50 49 50 50 53 59 65 69 69 67 64 67 73 74 70 67 61 53 62 86 101 101 100 101 99 97 94 91 88 85 83 81 82 87 91 92 95 98 97 96 90 82 81 85 85 80 74
56 55 56 56 56 55 55 54 53 53 53 52 51 50 51 52 57 63 67 70 77 84 89 91 90 89 89 91 94 97 95 89 83 77 71 78 94 101 100 101 101 100 99 96 94 92 89 87 87 92 96 96 98 101 99 98 97 88 82 83 84 79 74
58 58 58 57 56 55 54 54 53 53 53 53 54 60 69 73 81 89 92 93 96 98 99 99 99 99 100 101 100 99 100 99 96 98 95 90 93 99 100 101 100 101 101 100 100 98 94 94 95 96 99 101 101 100 98 97 97 90 83 85 87 82 75
59 61 60 58 56 55 54 54 53 53 54 54 60 79 95 98 97 99 100 100 101 100 101 101 101 101 99 99 100 99 100 102 100 100 101 99 97 98 100 101 100 101 101 100 101 101 98 98 100 99 100 101 99 97 98 99 97 89 85 91 93 86 77
62 62 61 59 58 56 56 57 55 55 55 51 59 84 101 102 101 101 101 102 103 102 102 101 99 98 97 94 93 94 96 98 100 101 101 100 100 99 99 101 101 100 100 100 101 100 100 101 99 96 98 100 99 98 100 101 97 89 88 94 95 88 79
64 63 61 61 61 59 59 58 56 56 55 54 67 89 101 101 101 102 101 102 103 102 102 101 97 94 93 91 88 91 94 95 98 101 100 100 101 100 98 98 96 95 95 99 101 99 98 99 97 95 98 100 99 99 101 100 95 89 89 94 95 89 80
65 63 63 63 63 63 61 58 57 57 57 64 80 91 95 98 101 100 101 101 101 101 102 101 97 92 90 91 91 94 98 99 99 98 98 99 99 100 98 93 92 92 88 87 92 95 92 89 91 95 100 100 99 101 102 99 94 89 90 94 93 86 81
65 64 64 65 66 66 61 58 60 62 62 68 77 82 88 98 101 100 101 100 100 102 102 99 93 87 85 88 89 91 93 96 99 98 98 98 97 97 94 86 86 92 92 90 91 90 86 82 84 92 97 99 100 100 98 94 88 84 87 91 88 83 83
67 66 64 66 68 67 63 62 64 64 61 61 64 73 89 100 102 101 101 100 98 99 100 97 91 83 80 80 82 86 84 82 85 86 85 87 91 94 92 85 80 81 86 95 99 97 93 90 87 89 92 95 97 94 88 85 81 79 82 85 86 88 90
69 69 68 67 68 70 70 67 64 60 55 55 61 75 93 101 101 101 101 98 95 92 92 91 89 87 81 75 76 80 74 65 67 72 75 79 83 85 87 84 77 71 72 80 86 89 95 100 97 93 89 91 95 93 87 87 88 89 91 93 95 98 97
70 71 72 70 68 73 75 67 59 56 53 52 59 75 94 102 101 100 102 100 96 92 88 84 84 86 82 73 74 78 70 59 58 59 65 78 85 86 87 83 73 66 63 64 67 71 77 86 92 90 87 90 95 95 93 95 98 99 100 100 101 101 99
74 72 73 73 71 74 76 68 58 56 58 56 60 78 96 102 101 101 101 101 99 94 88 81 75 73 72 73 78 78 68 60 59 55 57 74 92 97 96 93 86 78 67 62 70 77 74 73 76 77 80 83 87 93 96 98 101 101 100 102 102 99 96
79 76 74 74 72 71 73 70 61 57 62 64 70 87 101 101 101 102 101 100 100 98 93 84 72 63 62 66 71 73 67 62 64 62 57 70 94 104 99 96 99 98 85 72 77 88 91 89 85 83 86 82 81 93 100 98 100 102 101 102 101 96 95
81 82 77 72 71 68 66 67 66 63 65 70 80 94 102 101 101 101 100 100 101 100 97 87 75 68 65 63 64 66 66 64 67 66 61 69 92 100 95 94 99 103 97 85 82 87 95 100 95 92 96 93 89 97 101 98 99 100 98 101 99 94 94
81 84 79 70 68 68 62 63 72 72 68 74 90 99 101 101 102 100 101 102 102 102 97 85 76 72 69 69 68 63 61 64 67 67 66 74 83 80 79 90 97 97 94 89 87 88 91 96 97 95 98 98 94 98 100 99 100 98 95 97 95 91 94
83 85 79 70 67 67 62 63 71 73 72 81 96 102 100 102 102 100 101 103 103 101 92 80 75 74 72 74 75 68 64 63 64 70 78 84 77 65 71 89 96 94 95 95 95 97 95 94 96 99 100 99 97 99 101 100 100 100 98 98 96 94 93
87 89 86 79 71 64 63 66 68 69 77 89 99 101 100 101 100 95 93 98 102 100 94 85 77 71 71 73 72 70 68 65 70 83 90 84 71 66 77 93 98 97 100 100 99 101 100 96 95 96 98 100 100 99 99 99 100 99 98 100 101 98 92
91 94 95 92 82 67 63 69 69 67 76 90 98 98 97 99 98 88 82 88 96 100 101 94 75 63 68 75 74 73 76 80 89 96 91 80 78 83 91 99 101 99 101 102 100 101 102 100 96 93 92 94 95 94 96 99 99 96 96 99 101 97 90
96 100 99 100 95 83 73 73 73 71 77 90 96 94 94 97 97 89 84 91 97 100 101 93 76 68 75 83 87 89 92 95 98 98 93 89 89 92 96 100 100 98 99 100 98 95 93 90 88 86 85 84 84 86 93 100 100 96 96 99 101 97 93
99 101 101 101 101 95 86 83 80 77 83 93 98 97 97 99 98 96 96 99 101 100 95 85 76 76 82 90 98 100 99 97 95 94 97 99 96 95 98 99 98 97 94 91 88 86 83 81 79 80 81 80 78 82 93 101 100 97 99 100 101 100 99
101 101 101 101 102 98 94 92 88 83 88 98 102 100 99 100 99 97 98 102 100 92 82 76 77 83 89 97 101 100 97 99 98 96 97 99 99 99 99 95 93 91 87 81 78 79 81 83 83 84 86 84 78 80 93 101 99 99 101 100 100 101 100
102 102 101 101 101 100 99 98 93 90 93 101 104 102 100 100 99 97 98 100 96 84 77 81 89 94 98 101 101 98 95 93 93 96 99 100 100 100 98 96 95 92 87 82 82 85 88 92 95 96 97 94 84 81 93 101 100 100 101 99 99 101 100
103 103 102 102 101 100 100 100 98 97 98 100 101 101 100 100 100 100 99 99 95 89 88 94 98 100 100 99 97 97 95 91 90 94 97 98 99 99 99 100 100 99 96 94 95 97 97 98 100 100 101 101 94 89 94 101 100 100 100 99 100 100 98
102 102 103 103 103 102 100 99 100 100 99 100 100 100 100 100 99 100 100 98 97 98 99 100 101 101 101 99 96 94 92 92 94 96 95 95 98 100 100 100 99 99 100 100 100 101 101 100 101 101 101 102 100 96 97 100 100 100 100 100 100 100 99
96 100 101 100 101 103 102 99 99 100 100 100 100 100 101 101 99 100 102 101 100 100 99 99 100 100 100 101 100 97 92 88 89 92 92 90 89 92 98 102 100 96 97 99 99 100 101 101 101 102 101 99 96 94 94 95 97 100 100 99 100 101 99
87 92 94 93 95 101 103 100 99 100 100 100 100 101 102 102 100 101 102 99 97 99 100 100 99 99 99 100 101 100 96 93 92 92 89 87 84 82 86 94 98 98 98 96 92 93 99 101 100 100 102 100 95 91 88 88 92 98 101 100 100 101 100
81 85 86 85 86 93 99 101 100 100 100 101 100 101 101 101 102 103 98 91 91 96 100 100 100 100 100 99 100 100 99 99 99 95 91 92 95 91 85 83 88 93 95 90 84 87 96 100 100 99 101 101 99 95 90 84 83 90 99 101 99 100 100
79 83 86 85 83 83 89 97 101 100 100 102 101 100 99 97 96 96 91 88 92 98 100 100 100 100 100 99 100 101 100 100 101 99 96 97 100 100 95 90 84 83 83 81 80 87 96 100 100 100 100 99 100 100 96 88 81 87 99 103 100 100 99
79 82 86 89 86 82 85 92 97 99 102 103 101 98 94 89 87 88 89 91 96 99 100 100 100 100 100 100 100 100 100 100 100 99 98 95 93 94 99 100 92 82 77 75 78 88 98 101 100 100 101 99 98 99 101 98 92 91 97 98 97 97 95
83 82 85 88 87 84 84 88 91 94 99 102 101 96 92 89 92 95 97 98 100 100 100 100 100 100 100 100 100 100 100 100 100 100 98 95 92 92 98 102 97 86 77 75 79 89 98 101 100 100 101 100 99 99 100 100 97 94 94 95 94 94 95
Wind_Speed
41 42 42 43 43 44 44 44 43 43 43 44 44 44 44 43 43 43 44 44 43 43 42 43 44 45 45 44 45 45 45 45 45 45 47 47 48 49 48 48 47 47 52 51 43 41 43 40 38 39 38 37 37 33 29 29 31 31 31 31 30 29 29
42 42 43 44 44 44 44 44 44 44 44 44 45 45 45 44 44 45 45 45 45 44 43 44 45 46 46 44 44 47 46 46 46 46 48 49 49 50 50 49 48 48 49 51 46 41 42 41 38 39 39 37 37 36 32 32 34 34 34 34 34 33 32
42 43 44 44 45 45 45 45 45 44 44 45 45 45 45 45 45 45 46 46 46 45 44 45 46 47 47 45 44 46 46 45 45 46 49 50 50 51 51 50 49 48 48 50 48 43 42 42 39 39 39 37 36 37 35 35 36 36 36 37 37 37 36
43 44 44 45 45 45 45 45 45 45 45 45 45 45 46 46 45 45 46 46 46 46 45 45 47 48 48 47 46 46 45 44 45 45 47 50 51 51 52 52 50 49 49 48 48 45 44 42 40 39 40 37 36 36 36 37 37 37 37 37 37 38 38
44 45 45 46 46 45 45 45 45 45 45 45 45 45 46 46 46 46 46 46 46 46 46 45 47 48 47 47 48 48 47 45 45 46 46 48 51 52 52 52 51 50 49 48 48 47 46 43 41 39 38 36 35 36 36 36 37 37 37 36 36 37 37
45 45 46 46 45 45 45 45 44 45 45 45 45 45 46 46 46 46 45 46 45 45 44 44 44 45 45 45 45 46 46 45 45 46 46 46 49 51 51 51 51 50 49 49 48 49 47 45 42 39 37 36 35 36 37 37 37 38 37 37 37 37 37
45 45 45 45 45 45 45 44 45 45 45 45 45 45 45 45 44 44 44 44 43 43 43 43 43 43 42 41 41 41 41 41 42 44 46 47 48 49 49 50 50 49 49 48 48 48 48 46 44 40 38 37 36 36 38 38 38 39 39 38 37 37 36
45 45 45 44 45 44 44 44 45 45 45 45 45 44 44 44 44 44 45 45 45 44 43 43 41 40 40 40 41 40 39 39 38 39 42 46 47 48 49 50 50 48 48 48 47 47 46 45 44 41 38 37 36 37 39 39 37 39 40 38 37 37 36
45 45 45 45 44 44 44 44 45 45 44 44 44 43 43 44 44 45 46 46 45 44 43 42 41 42 42 41 41 40 39 39 38 38 41 44 45 47 48 50 50 48 47 46 46 45 44 43 43 41 38 36 37 40 41 39 37 38 39 38 37 37 36
45 44 45 45 45 45 44 45 45 44 42 41 40 40 41 42 43 43 43 44 44 44 45 45 46 47 47 45 44 44 43 42 43 43 44 44 45 46 47 48 48 48 47 46 44 43 43 42 43 43 40 39 40 40 39 38 37 38 39 38 37 37 35
45 44 44 44 45 45 45 45 44 42 40 38 36 36 38 41 43 45 46 46 48 49 49 49 49 48 48 48 47 47 46 45 45 45 45 45 46 47 48 47 47 47 46 45 44 43 41 41 43 44 41 40 41 40 38 37 37 37 38 38 38 38 36
45 44 44 44 44 45 45 44 42 39 37 34 32 33 36 39 42 44 46 47 48 49 49 49 49 48 46 46 45 44 44 44 43 43 43 44 45 47 50 51 50 49 48 46 44 43 43 43 44 44 42 41 41 39 37 36 36 37 39 39 38 38 36
45 44 44 43 44 44 43 42 40 36 33 31 32 33 35 36 39 42 44 46 47 48 48 48 48 47 46 44 43 43 43 42 42 41 41 41 43 45 49 53 54 53 53 51 49 47 47 47 45 44 43 42 40 38 37 37 37 38 39 40 39 38 34
45 44 44 43 42 42 42 39 36 33 32 32 33 33 34 37 39 42 44 45 46 46 46 46 46 46 45 44 42 42 42 41 40 40 39 39 41 43 46 51 55 55 54 52 51 50 50 49 47 44 43 42 40 38 38 38 39 40 40 40 38 34 30
45 44 44 42 40 39 38 36 34 33 32 33 33 34 35 38 41 43 44 45 44 44 44 45 45 45 44 43 42 40 40 40 40 40 40 38 39 40 41 45 51 55 54 50 48 48 49 48 47 45 43 43 42 41 41 40 39 38 37 36 34 31 29
43 43 42 41 38 36 37 36 34 33 33 33 33 35 37 41 43 45 47 46 44 43 42 43 44 44 43 42 41 40 39 39 40 42 42 40 39 38 39 40 44 48 51 50 47 46 46 45 45 46 44 43 44 43 41 38 37 36 35 34 33 32 31
42 41 40 38 35 34 37 37 34 34 34 34 34 37 40 44 47 49 50 48 44 41 41 42 43 43 43 42 41 40 39 37 38 40 42 42 40 39 39 39 39 40 44 45 45 46 45 44 43 44 43 42 43 42 40 38 39 39 37 36 34 32 30
41 40 37 35 33 34 39 40 37 36 36 36 37 39 43 47 50 51 51 49 45 42 40 41 42 42 41 40 39 37 36 34 34 38 42 41 40 40 40 40 39 38 40 40 40 42 43 43 43 43 40 38 36 36 37 38 40 40 38 36 35 32 28
40 39 36 32 33 35 38 41 40 37 38 40 40 41 45 48 51 52 50 48 46 42 39 39 41 41 39 38 36 35 35 33 32 36 39 38 37 38 39 39 38 37 37 37 36 36 35 36 38 39 37 33 30 31 34 35 36 38 38 37 35 31 28
38 37 35 32 34 36 38 41 41 39 40 42 42 43 47 50 51 51 49 47 44 41 38 38 39 38 36 34 34 34 36 35 33 35 37 37 37 37 36 36 37 36 35 34 33 33 32 30 31 32 34 33 30 31 34 33 30 31 34 35 34 33 32
36 36 35 34 35 37 38 39 41 42 42 44 45 47 50 52 52 50 48 46 42 37 36 36 36 35 32 31 31 32 33 32 31 33 35 37 38 36 33 34 35 35 34 33 32 32 32 31 29 29 31 34 33 32 34 34 31 28 28 30 33 34 34
36 36 37 37 37 39 40 40 41 43 45 47 50 52 52 52 49 43 40 39 34 32 32 31 29 28 28 28 29 30 30 30 29 29 31 34 37 33 31 33 33 32 32 32 32 31 31 31 31 30 30 32 32 31 31 32 32 29 25 25 28 32 32
36 38 40 42 41 41 42 41 42 45 47 50 54 54 51 47 39 32 30 29 27 27 27 25 24 26 27 26 26 26 27 27 26 24 24 29 34 32 29 31 30 29 30 32 32 32 31 32 33 33 33 33 32 30 26 25 28 29 26 23 24 26 28
37 40 43 46 46 45 44 43 43 46 48 51 55 55 50 41 30 24 24 24 23 23 22 22 23 25 26 25 24 23 22 22 21 20 20 23 27 27 27 28 28 26 27 29 29 30 29 30 32 35 35 35 34 32 26 23 25 26 26 24 21 23 26
39 41 44 46 47 47 46 44 45 47 48 52 56 54 50 41 27 20 21 22 20 20 21 22 23 23 24 24 21 18 17 16 15 15 15 17 21 24 25 26 26 24 24 25 25 25 26 28 30 33 35 35 35 31 25 23 25 25 24 23 21 21 25
40 42 45 45 45 46 45 43 45 47 48 53 57 53 50 44 28 19 21 23 19 17 18 20 21 21 21 19 15 12 11 11 10 10 10 13 18 23 24 25 25 24 22 23 22 22 23 25 28 30 31 33 35 31 24 25 28 26 24 24 23 22 25
40 42 44 44 44 44 43 42 44 46 48 54 56 51 50 45 26 14 18 21 16 12 11 13 14 16 15 13 10 7 6 6 5 5 6 11 18 22 23 23 23 22 19 19 18 17 17 20 23 26 27 30 34 32 27 27 30 29 26 26 25 24 25
40 40 40 41 41 42 41 40 42 44 47 53 51 46 47 42 22 11 18 20 12 6 7 8 9 12 11 8 6 4 3 3 3 3 3 7 13 18 20 21 22 20 17 17 16 15 15 16 19 22 23 26 32 34 31 29 30 29 27 26 26 26 26
35 35 35 36 35 35 37 39 41 42 44 47 43 36 39 40 26 15 19 19 10 5 6 8 10 10 7 4 3 3 2 3 4 4 4 5 8 11 14 17 20 20 19 19 18 18 18 17 17 18 20 24 31 36 34 29 26 25 25 26 26 27 28
27 28 31 32 30 29 30 33 37 39 39 40 37 30 29 32 25 17 16 14 8 6 7 9 10 8 5 5 5 5 5 5 6 5 6 6 8 10 11 12 15 16 17 18 19 19 19 18 17 17 19 23 30 36 36 31 25 23 25 27 26 27 28
24 23 25 27 28 28 26 28 33 36 36 36 34 28 24 25 24 18 14 10 6 5 8 10 11 9 7 6 6 7 8 10 11 10 9 9 10 12 13 13 14 14 15 15 14 16 18 19 19 18 18 21 27 33 36 34 29 26 26 26 25 26 27
27 25 23 22 24 26 26 28 33 36 35 34 32 27 22 21 23 22 15 8 6 8 11 12 12 12 10 8 7 8 10 11 12 13 12 11 12 14 16 17 17 16 15 14 13 13 15 18 19 19 18 19 23 30 35 37 34 31 29 25 23 23 25
31 29 27 24 24 24 25 28 32 34 35 35 32 26 22 20 21 23 19 12 13 19 21 18 16 15 13 10 9 10 11 11 10 10 11 11 11 12 15 18 20 19 17 16 15 14 15 17 18 17 17 19 21 25 30 36 38 36 32 28 24 22 23
33 31 30 30 28 25 26 28 30 32 34 34 31 27 23 19 18 20 20 19 21 25 26 25 23 21 18 15 12 10 10 11 10 10 11 12 11 11 11 14 19 21 19 19 18 16 15 15 15 16 18 19 21 22 25 32 39 40 35 30 27 25 24
38 34 32 32 30 28 28 29 28 29 31 32 31 28 25 22 21 22 23 23 24 26 26 26 26 25 24 22 19 15 10 8 10 12 13 13 13 13 11 11 16 20 20 20 19 17 16 14 13 15 17 18 20 23 24 28 34 38 36 32 29 27 26
39 37 34 33 31 29 29 29 28 28 28 29 30 29 27 28 30 30 28 26 25 25 25 25 25 25 25 25 25 24 19 10 4 7 11 13 15 15 13 11 13 16 18 19 18 15 15 14 12 15 17 17 19 22 24 25 28 31 31 30 29 27 26
Wind_Direction
316 315 315 314 314 314 313 313 313 312 311 309 308 307 305 304 302 299 297 295 292 289 287 284 280 275 271 267 264 261 260 261 261 259 257 256 255 254 252 252 251 252 259 264 264 268 273 274 274 273 272 271 270 265 257 254 254 253 251 250 251 252 252
317 317 316 315 315 315 315 314 314 313 312 310 308 307 306 304 303 301 298 296 294 291 290 287 283 279 275 271 267 263 259 258 259 258 256 254 252 252 250 249 249 250 254 260 262 263 268 271 269 269 269 266 266 264 257 254 255 255 254 253 254 254 254
318 318 317 316 316 316 315 315 314 313 311 310 308 307 306 305 304 302 300 298 296 294 293 290 287 282 279 276 272 266 261 257 257 257 256 253 251 250 250 248 248 248 250 256 260 260 263 266 264 265 267 263 263 264 260 256 255 255 256 256 256 256 256
320 319 318 317 316 316 315 315 314 312 311 309 308 307 306 304 303 302 300 298 297 295 294 291 289 285 283 282 278 271 265 257 254 256 256 254 251 249 249 248 247 247 247 251 256 257 259 262 261 263 264 261 259 260 259 258 257 256 256 257 256 257 256
321 320 319 318 317 316 316 315 313 312 310 309 308 306 304 303 302 301 300 298 296 294 292 289 287 285 283 282 279 275 271 264 256 253 254 255 252 248 248 247 245 246 246 247 251 254 256 258 259 259 260 258 256 256 256 256 257 257 256 256 256 255 255
321 320 319 318 317 316 315 315 313 311 309 307 306 304 303 303 302 300 298 296 294 293 291 289 287 286 283 281 278 276 274 270 262 254 251 253 252 248 246 245 244 244 244 245 247 251 253 254 255 255 255 254 252 252 252 252 254 256 255 254 254 254 254
320 319 318 317 316 316 315 313 311 309 308 306 306 305 304 303 302 300 299 298 297 296 295 293 291 290 287 284 281 279 276 273 267 258 250 249 251 250 245 243 243 242 242 242 243 245 247 250 252 252 252 253 252 251 250 249 250 253 254 252 253 254 254
319 318 317 317 316 315 313 311 310 309 309 308 308 307 307 306 306 305 304 303 302 300 298 296 294 291 290 288 285 284 280 275 271 266 258 250 248 249 247 243 242 242 240 240 239 240 243 247 250 250 250 250 248 246 245 244 244 250 254 254 253 254 253
319 318 318 317 316 314 312 310 310 310 310 310 311 310 308 307 306 304 303 301 300 298 295 293 291 288 285 283 281 278 274 271 268 266 263 257 250 248 248 244 241 240 238 237 236 237 239 243 247 247 246 244 242 242 243 243 242 247 253 254 254 255 253
319 319 318 317 316 314 312 311 311 312 312 312 310 306 300 297 295 293 291 290 289 288 287 285 284 283 281 279 277 275 271 268 265 262 261 259 252 248 248 245 240 237 236 235 233 234 236 239 243 245 243 241 242 243 243 241 241 245 250 252 253 254 252
320 319 319 317 315 314 313 312 313 314 313 311 309 303 297 294 293 292 290 289 289 288 287 286 285 283 282 280 279 278 275 271 268 264 261 259 254 249 246 244 239 234 234 233 232 233 235 237 242 244 243 242 242 241 239 237 240 245 247 247 248 251 251
321 320 319 317 315 314 313 313 314 314 312 309 307 303 299 296 295 294 293 293 293 291 290 289 288 286 284 282 281 280 278 276 273 267 262 258 256 251 246 244 242 237 233 232 231 233 235 237 241 244 243 240 239 236 235 237 239 243 245 245 246 249 249
322 320 319 318 316 315 314 313 314 314 311 309 306 301 298 296 295 294 293 293 293 291 289 288 286 285 283 281 280 279 278 277 274 270 265 260 257 253 247 243 243 241 237 234 233 234 237 238 241 243 242 239 236 233 233 236 238 241 243 244 245 248 248
322 320 319 318 317 316 314 313 315 315 313 310 306 301 300 300 298 296 294 293 292 290 287 285 283 282 280 277 277 277 277 276 274 271 269 265 260 256 250 244 241 240 239 236 233 234 238 240 241 242 241 239 236 233 233 236 239 241 242 243 247 250 251
322 320 319 318 318 317 314 315 318 317 313 310 308 306 305 303 302 300 298 296 294 291 287 284 282 280 279 276 274 273 272 271 270 269 269 268 262 257 253 247 241 239 239 238 236 237 239 241 240 240 240 239 238 238 239 241 244 245 245 247 250 250 248
322 321 319 318 319 319 317 317 319 318 315 313 313 311 309 307 306 304 302 300 296 292 287 283 280 279 279 277 275 272 269 265 264 265 265 265 262 258 253 249 243 239 239 240 241 241 242 243 241 239 239 239 239 240 241 242 242 242 242 243 244 244 242
323 321 320 319 320 322 322 320 321 322 319 317 316 314 313 312 309 306 303 301 298 293 286 281 278 278 277 276 275 273 270 264 259 258 259 260 260 258 253 248 243 239 237 238 240 241 241 242 241 240 240 241 241 241 240 237 234 233 234 234 235 238 237
324 322 321 321 322 326 326 325 326 326 324 322 320 317 315 314 311 307 304 301 298 293 286 279 275 275 275 274 273 270 266 262 256 253 254 254 256 256 252 246 242 240 238 238 239 240 239 240 240 239 239 241 240 239 238 234 231 230 231 230 231 234 232
327 323 323 325 326 328 329 330 329 328 328 326 321 317 318 317 313 308 303 300 297 293 287 279 275 274 274 272 268 265 264 262 256 251 250 250 251 251 248 243 240 238 239 239 240 239 236 235 236 234 233 234 232 228 231 233 232 232 231 230 230 229 225
329 327 326 328 329 330 331 331 331 331 330 327 322 321 323 321 314 309 304 300 296 291 285 280 277 277 276 271 266 264 265 264 259 250 245 244 246 246 244 240 237 237 240 241 240 238 232 228 229 229 228 228 225 221 225 230 231 230 230 231 229 225 222
332 331 330 330 331 332 332 332 333 333 331 329 328 329 329 324 318 313 307 300 294 287 282 280 280 279 277 272 268 265 265 264 259 249 242 239 240 242 240 236 235 236 239 240 238 236 232 227 224 222 221 221 222 221 223 225 227 228 229 229 226 223 221
336 335 334 333 332 332 333 335 336 335 333 333 335 335 333 328 322 314 306 299 291 281 277 279 282 281 277 274 270 267 265 263 257 251 245 238 236 238 235 232 233 234 235 234 233 231 229 224 220 215 211 211 214 217 220 224 226 229 231 229 226 224 222
339 339 338 336 333 333 335 337 337 336 336 338 339 338 337 333 323 311 304 299 289 280 277 278 278 277 276 278 277 273 268 263 258 258 254 239 233 233 230 227 229 231 230 229 227 227 226 223 219 216 213 210 210 211 218 227 228 228 231 231 228 225 221
341 340 338 337 335 334 336 338 338 338 339 341 342 341 340 337 324 308 307 304 291 282 276 272 272 274 276 279 280 276 271 266 263 261 252 235 227 224 220 219 221 222 223 224 224 225 225 223 222 221 220 220 219 216 220 230 229 225 227 229 228 221 211
340 339 337 336 335 334 335 337 338 339 340 344 344 342 343 342 327 305 308 311 300 286 275 268 271 275 277 281 282 280 281 282 275 262 245 226 215 210 208 212 214 212 212 216 219 222 224 224 225 225 223 224 224 220 219 224 222 219 219 222 224 219 207
338 337 336 335 334 334 334 336 338 339 341 345 345 342 344 344 332 305 308 314 311 299 279 265 267 274 281 290 293 293 300 301 287 266 239 212 202 200 201 206 208 206 206 210 214 220 224 226 227 227 225 225 224 218 212 211 212 213 214 214 215 213 205
336 335 335 335 334 334 335 337 340 341 341 344 344 344 346 345 335 315 322 324 321 312 282 259 265 277 286 298 301 298 312 319 301 273 227 195 194 198 201 204 206 207 210 213 215 220 224 225 224 222 221 220 219 213 204 202 208 212 212 211 211 210 204
334 334 335 335 335 335 335 338 341 341 340 342 344 348 354 357 356 351 345 339 329 310 273 264 287 294 289 293 294 286 298 310 294 272 224 188 187 196 204 207 209 212 218 221 223 223 222 219 217 215 213 211 209 205 200 199 204 209 213 212 210 208 205
332 334 335 335 336 337 337 337 338 337 339 344 346 350 3 12 18 15 2 355 347 326 300 298 307 307 296 295 300 291 280 273 263 248 232 203 184 188 198 204 208 213 220 225 228 229 226 221 216 211 208 205 202 199 198 198 198 204 213 214 209 207 208
336 337 339 339 341 342 339 335 334 336 343 349 350 351 4 16 19 14 9 8 2 348 343 336 326 318 316 318 313 307 298 286 279 266 246 225 206 196 191 193 200 208 216 222 228 232 232 229 221 211 207 205 201 199 200 200 195 196 205 207 206 207 207
345 343 342 344 346 345 344 341 341 344 349 353 354 356 8 19 21 18 14 5 351 353 10 11 4 355 348 335 318 307 297 287 280 273 262 248 234 223 211 200 198 204 211 215 222 231 236 234 227 218 210 206 204 203 204 203 199 195 197 198 201 204 201
354 350 347 350 352 351 350 351 350 350 353 356 357 3 16 27 29 28 24 10 11 32 34 26 17 8 355 339 318 304 296 289 282 270 258 253 249 241 229 217 209 210 214 216 218 230 237 236 230 223 214 208 205 205 206 206 203 200 199 198 199 201 199
358 355 353 355 357 356 357 356 353 354 357 359 359 3 16 32 39 38 34 30 36 43 42 37 30 20 6 350 329 309 298 291 279 257 243 246 251 247 236 224 217 215 219 222 225 235 242 238 229 220 212 204 200 201 206 206 204 204 205 204 203 203 203
359 359 359 359 359 2 5 2 358 359 1 3 4 4 10 26 44 48 46 44 44 44 42 41 39 35 28 19 3 334 306 290 273 252 244 245 244 240 235 226 219 218 221 224 226 234 245 242 224 210 209 205 194 193 200 203 202 204 206 207 208 210 211
355 358 1 0 359 3 8 7 5 6 5 7 10 9 7 16 32 39 40 41 42 40 38 37 37 37 36 35 32 22 356 308 276 258 249 241 230 225 224 221 218 218 219 221 222 228 240 239 212 198 208 207 191 188 194 195 197 202 207 209 211 213 213
352 355 359 360 359 3 8 9 9 11 11 12 15 15 14 20 26 27 28 30 32 32 33 32 31 30 32 35 37 37 35 25 327 265 245 232 224 220 217 211 209 208 209 215 221 225 230 229 208 198 208 205 189 189 193 189 191 197 200 201 204 205 204